[[{"header":{"parameterUnit":"m.s-1","parameterCategory":1,"la1":30.2991,"la2":30.254,"lo1":-89.0895,"lo2":-89.0444,"dy":0.0017,"dx":0.0017,"nx":28,"ny":28,"refTime":"2023-07-21T09:00:00:Z","depth":0,"parameterNumber":2,"parameterNumberName":"U-component_of_WINDS"},"data":[0,0,0,0,0,0,0,0,0,0,0,0,0,0,0,0,0,0,0,0,0,0,0,0,0,0,0,0,0,0,0,0,0,0,0,0,0,0,0,0,0,0,0,0,0,0,0,0,0,0,0,0,0,0,0,0,0,0,2.6689,2.669,0,2.673,2.673,2.6731,2.6593,2.6589,2.6584,2.658,2.6627,2.6632,2.6637,0,0,0,0,0,0,0,0,0,0,0,0,0,2.6498,2.6503,2.6689,2.669,2.669,2.673,2.673,2.6731,2.6594,2.6588,2.6583,2.6579,2.6625,2.6631,2.6637,0,0,0,0,0,0,0,0,0,0,0,0,0,2.6565,2.6504,2.6689,2.6626,2.6621,2.673,2.673,2.6731,2.6595,2.6588,2.6582,2.6576,2.6623,2.663,2.6638,2.6811,0,0,2.6662,2.6665,0,0,0,0,0,0,0,0,2.6561,2.6572,2.6635,2.6631,2.6625,2.665,2.668,2.6758,2.6596,2.6605,2.658,2.6573,2.664,2.6646,2.6667,2.6813,2.6815,2.6662,2.6667,2.667,2.6672,0,0,0,0,0,0,0,2.6557,2.6569,2.6705,2.6636,2.663,2.6598,2.6601,2.6694,2.6657,2.6604,2.6594,2.66,2.6636,2.666,2.6667,2.6815,2.6662,2.6669,2.6674,2.6677,2.7108,2.7115,0,0,0,0,0,0,2.656,2.6566,2.6704,2.6706,2.6577,2.6607,2.6609,2.6648,2.6656,2.6651,2.6605,2.6594,2.665,2.6658,2.6668,2.6872,2.667,2.6677,2.6682,2.7102,2.711,2.7117,0,0,0,0,0,0,2.6556,2.6573,2.6702,2.6634,2.6648,2.6616,2.6661,2.6652,2.6676,2.6657,2.665,2.6637,2.6645,2.6658,2.6777,2.6872,2.6681,2.6688,2.7093,2.7104,2.7114,2.7281,0,0,0,0,0,0,2.6551,2.6573,2.6636,2.6636,2.6652,2.6809,2.6667,2.6658,2.6689,2.6674,2.6684,2.668,2.6641,2.6766,2.6784,2.6879,2.6694,2.7085,2.7098,2.711,2.7267,2.7296,2.7321,0,0,0,0,0,2.6545,2.6682,2.664,2.6657,2.673,2.6814,2.6823,2.6775,2.6698,2.6762,2.6751,2.668,2.6859,2.6779,2.6799,2.6897,2.7078,2.7094,2.7109,2.7255,2.729,2.732,0,0,0,0,0,0,2.6694,2.668,2.6634,2.6775,2.6797,2.6791,2.687,2.6813,2.6858,2.6843,2.6782,2.6786,2.6917,2.6919,2.683,2.7067,2.6956,2.6976,2.706,2.7093,2.712,2.7116,2.67,0,0,0,0,0,2.6743,2.6811,2.6796,2.6922,2.6935,2.6902,2.6936,2.6898,2.6918,2.6927,2.6923,2.6948,2.701,2.7052,2.7107,2.7267,2.7269,2.7345,2.7372,2.7394,2.7412,2.75,2.7534,2.7168,2.7168,2.7168,0,0,2.6846,2.6847,2.6893,2.6952,2.6964,2.7038,2.691,2.6992,2.7047,2.694,2.7052,2.7051,2.7075,2.7216,2.7278,2.7222,2.7514,2.7414,2.7432,2.7438,2.7519,2.7554,2.7585,2.7178,2.7177,2.7175,0,0,2.707,2.7077,2.7183,2.7199,2.7219,2.7197,2.7223,2.7227,2.7222,2.7333,2.7255,2.7321,2.7428,2.7448,2.7473,2.771,2.7647,2.773,2.787,2.7956,2.7985,2.801,2.8096,2.8128,2.7748,2.7749,2.7749,0,2.7195,2.73,2.7246,2.7334,2.7364,2.727,2.738,2.7398,2.7437,2.746,2.7397,2.7531,2.754,2.7686,2.7744,2.7767,2.7797,2.7728,2.7985,2.801,2.8033,2.8114,2.8147,2.7759,2.7758,2.7756,2.7756,0,2.7454,2.7529,2.7613,2.7652,2.7692,2.779,2.7753,2.78,2.7759,2.7744,2.7861,2.7869,2.7926,2.7958,2.7919,2.81,2.8065,2.7995,2.7882,2.8078,2.8154,2.8185,2.7773,2.7769,2.7766,2.7764,0,0,2.777,2.778,2.7812,2.783,2.7848,2.7906,2.8002,2.8057,2.81,2.8131,2.8211,2.8306,2.8242,2.827,2.8233,2.8309,2.8498,2.8229,2.8229,2.828,2.8701,2.8754,2.879,2.8458,2.8463,2.8468,2.8699,0,2.7991,2.8154,2.811,2.8273,2.8343,2.8258,2.8342,2.8364,2.8354,2.8414,2.8403,2.8471,2.8381,2.8398,2.8469,2.846,2.8582,2.8443,2.8534,2.8537,2.853,2.8829,2.8885,2.9102,2.8728,2.8733,2.8737,0,2.827,2.8312,2.8482,2.8491,2.8519,2.8595,2.8644,2.8702,2.8726,2.8714,2.8748,2.8696,2.8794,2.8682,2.8817,2.8723,2.8758,2.876,2.8768,2.8774,2.8649,2.8845,2.917,2.9204,2.8782,2.8779,2.8775,0,2.8485,2.8584,2.87,2.8718,2.8731,2.8787,2.8795,2.8813,2.885,2.8894,2.8918,2.8973,2.9003,2.9048,2.9014,2.8935,2.9156,2.904,2.915,2.9152,2.92,2.9197,2.9536,2.9223,2.9222,2.9222,2.9221,0,2.8736,2.8844,2.8797,2.8868,2.8988,2.8938,2.9058,2.9057,2.9075,2.9146,2.9076,2.9145,2.9096,2.9161,2.9136,2.9253,2.9267,2.9261,2.9253,2.9268,2.9269,2.9289,2.9274,2.923,2.9228,2.9227,2.9225,0,2.8995,2.8968,2.9088,2.9092,2.9096,2.9184,2.9188,2.9255,2.9241,2.9333,2.9351,2.933,2.9404,2.9375,2.9453,2.9436,2.9587,2.9558,2.9578,2.9571,2.9683,2.9673,3.0047,3.0095,2.9751,2.9754,2.9757,0,2.9157,2.9238,2.9252,2.9294,2.9307,2.9376,2.9414,2.937,2.9413,2.9449,2.9513,2.9581,2.9632,2.9755,2.9747,2.9808,2.9781,2.9909,2.979,2.9803,2.9784,2.978,2.9789,2.9932,2.9936,2.9939,2.9942,0,2.9448,2.9431,2.9488,2.9542,2.9589,2.9629,2.9663,2.9703,2.966,2.9713,2.9787,2.9828,2.9908,2.9978,3.0032,3.0043,2.9987,2.998,3.0008,3.0024,3.0032,3.003,2.9643,2.9971,2.9968,2.9966,2.9964,2.9963,2.9664,2.9733,2.9754,2.9821,2.9842,2.9877,2.9941,2.9936,2.9997,3.0058,3.0029,3.0117,3.0143,3.021,3.0229,3.0299,3.0249,3.0291,3.0301,3.0312,3.0327,3.0022,3.0308,3.0307,3.0307,3.0306,3.0305,0,2.9952,2.9962,3.0024,3.0074,3.0128,3.007,3.0106,3.0155,3.0233,3.0261,3.0314,3.0402,3.0469,3.0469,3.0532,3.0588,3.0564,3.0606,3.0602,3.0606,3.0367,3.0336,3.0625,3.0624,3.0624,3.0624,3.0624,3.0624,3.0108,3.0223,3.021,3.0336,3.0346,3.043,3.0456,3.0489,3.0511,3.0612,3.0668,3.0667,3.0685,3.0749,3.081,3.0808,3.0835,3.0887,3.0876,3.0654,3.0622,3.0592,3.0562,3.0893,3.0894,3.1109,3.1111,3.1112]},{"header":{"parameterUnit":"m.s-1","parameterCategory":1,"la1":30.2991,"la2":30.254,"lo1":-89.0895,"lo2":-89.0444,"dy":0.0017,"dx":0.0017,"nx":28,"ny":28,"refTime":"2023-07-21T09:00:00:Z","depth":0,"parameterNumber":3,"parameterNumberName":"V-component_of_WINDS"},"data":[0,0,0,0,0,0,0,0,0,0,0,0,0,0,0,0,0,0,0,0,0,0,0,0,0,0,0,0,0,0,0,0,0,0,0,0,0,0,0,0,0,0,0,0,0,0,0,0,0,0,0,0,0,0,0,0,0,0,6.0668,6.0669,0,6.0757,6.0758,6.0759,6.0683,6.068,6.0676,6.0673,6.0757,6.0762,6.0767,0,0,0,0,0,0,0,0,0,0,0,0,0,6.0425,6.043,6.0668,6.0669,6.067,6.0757,6.0758,6.076,6.0683,6.0679,6.0676,6.0672,6.0756,6.0762,6.0768,0,0,0,0,0,0,0,0,0,0,0,0,0,6.0524,6.0431,6.0668,6.0643,6.0642,6.0757,6.0758,6.076,6.0684,6.0679,6.0675,6.067,6.0754,6.0761,6.0769,6.0911,0,0,6.0792,6.0796,0,0,0,0,0,0,0,0,6.0518,6.0533,6.0645,6.0645,6.0644,6.0704,6.0703,6.081,6.0685,6.0668,6.0673,6.0668,6.0743,6.0751,6.0778,6.0915,6.0918,6.0793,6.0798,6.0801,6.0803,0,0,0,0,0,0,0,6.0511,6.0528,6.0703,6.0647,6.0646,6.0625,6.0634,6.0723,6.073,6.0669,6.0664,6.0676,6.0741,6.0771,6.0779,6.092,6.0793,6.08,6.0805,6.0808,6.1177,6.1182,0,0,0,0,0,0,6.0508,6.0523,6.07,6.0706,6.0568,6.0633,6.0643,6.0689,6.0729,6.0731,6.068,6.0672,6.076,6.0771,6.0782,6.0951,6.0801,6.0808,6.0813,6.1172,6.1178,6.1184,0,0,0,0,0,0,6.0503,6.0525,6.0697,6.0613,6.0633,6.0642,6.0695,6.0694,6.0723,6.0738,6.0738,6.0709,6.0757,6.0771,6.088,6.0953,6.0812,6.0819,6.1166,6.1174,6.1181,6.129,0,0,0,0,0,0,6.0497,6.0523,6.0579,6.0615,6.0638,6.0795,6.07,6.0699,6.0737,6.0728,6.0765,6.0766,6.0754,6.0869,6.0888,6.0961,6.0825,6.1159,6.1169,6.1179,6.128,6.1301,6.1318,0,0,0,0,0,6.0488,6.0604,6.0582,6.0604,6.0709,6.08,6.0813,6.0798,6.0744,6.0799,6.0808,6.0765,6.0942,6.0881,6.0901,6.0978,6.1155,6.1167,6.1178,6.1271,6.1297,6.1318,0,0,0,0,0,0,6.0573,6.0609,6.0584,6.0716,6.0756,6.0787,6.0855,6.0825,6.0879,6.0868,6.0845,6.0854,6.0969,6.0984,6.0915,6.1117,6.1039,6.1056,6.1103,6.1127,6.1146,6.1139,6.0831,0,0,0,0,0,6.0609,6.0682,6.0708,6.0822,6.0843,6.0847,6.0885,6.0871,6.091,6.0926,6.0943,6.0981,6.1044,6.1087,6.1146,6.1282,6.1288,6.1345,6.1364,6.138,6.1394,6.1466,6.1491,6.1222,6.1222,6.1222,0,0,6.068,6.0708,6.0755,6.084,6.0869,6.0943,6.0861,6.0943,6.0997,6.0937,6.1042,6.1056,6.1096,6.1219,6.1274,6.1235,6.147,6.1395,6.1407,6.1412,6.1481,6.1506,6.1529,6.123,6.1228,6.1227,0,0,6.0848,6.0878,6.0976,6.1008,6.1054,6.1055,6.1079,6.1115,6.1123,6.1228,6.1185,6.1248,6.1359,6.1389,6.1419,6.1601,6.1563,6.1621,6.172,6.1791,6.1812,6.1831,6.1895,6.1918,6.1635,6.1635,6.1636,0,6.093,6.1043,6.1029,6.1116,6.1153,6.1106,6.1204,6.1234,6.1297,6.1323,6.1279,6.1418,6.1442,6.1571,6.1616,6.1642,6.1667,6.1616,6.1811,6.183,6.1847,6.1907,6.1932,6.1642,6.1641,6.1641,6.164,0,6.1142,6.1221,6.1294,6.1359,6.1405,6.1497,6.1495,6.1542,6.1525,6.153,6.1637,6.1665,6.1729,6.1759,6.1741,6.1886,6.186,6.1815,6.1735,6.1879,6.1936,6.1959,6.1652,6.1649,6.1647,6.1646,0,0,6.1364,6.1422,6.1449,6.1478,6.1526,6.1586,6.1675,6.1741,6.1782,6.1827,6.1899,6.1995,6.1954,6.1988,6.1973,6.2036,6.2177,6.1982,6.1982,6.2016,6.2337,6.2371,6.2398,6.2153,6.2158,6.2161,6.2334,0,6.1534,6.1692,6.1683,6.183,6.1902,6.1859,6.1936,6.1973,6.1981,6.2042,6.2049,6.2117,6.2058,6.2078,6.2138,6.2147,6.2241,6.2135,6.2218,6.2222,6.2209,6.2428,6.2464,6.2625,6.2356,6.2359,6.2362,0,6.1752,6.1808,6.1964,6.2002,6.2032,6.2102,6.2162,6.2221,6.2262,6.2263,6.2303,6.2278,6.2366,6.2286,6.2406,6.2334,6.2367,6.2377,6.2383,6.2389,6.23,6.2439,6.2676,6.27,6.2397,6.2394,6.2392,0,6.1899,6.2012,6.212,6.2146,6.2194,6.2244,6.2266,6.2302,6.2342,6.2394,6.2419,6.2479,6.2512,6.2558,6.255,6.2493,6.2672,6.2591,6.2673,6.2674,6.2712,6.2709,6.2957,6.2736,6.2735,6.2735,6.2734,0,6.2088,6.2185,6.2187,6.2253,6.2359,6.2347,6.2452,6.2467,6.25,6.2567,6.2532,6.2595,6.2581,6.2643,6.2637,6.2736,6.2751,6.2753,6.275,6.2756,6.2756,6.2777,6.2765,6.2741,6.274,6.2739,6.2737,0,6.2269,6.2274,6.2389,6.2426,6.2437,6.2514,6.2544,6.2605,6.2611,6.2696,6.2715,6.2724,6.2795,6.2792,6.2872,6.2867,6.299,6.2974,6.2978,6.2974,6.3056,6.3048,6.3325,6.3361,6.3117,6.3119,6.3121,0,6.2389,6.2463,6.2509,6.2553,6.2579,6.2649,6.2691,6.2682,6.2726,6.2779,6.2834,6.2902,6.2957,6.3072,6.3084,6.3145,6.3129,6.3222,6.3138,6.3142,6.313,6.3125,6.3132,6.3238,6.3241,6.3243,6.3245,0,6.2602,6.2601,6.2665,6.273,6.2782,6.2832,6.2877,6.2914,6.2909,6.2961,6.3035,6.3078,6.3161,6.3229,6.3288,6.3307,6.3275,6.3272,6.3294,6.33,6.3299,6.33,6.3022,6.3265,6.3263,6.3262,6.3261,6.326,6.2755,6.2819,6.2862,6.2934,6.2968,6.3012,6.3072,6.3087,6.3149,6.3218,6.3208,6.3291,6.3329,6.3405,6.343,6.3493,6.3459,6.3492,6.3499,6.3507,6.3517,6.329,6.3503,6.3503,6.3502,6.3502,6.3501,0,6.2965,6.2992,6.3058,6.3125,6.3181,6.315,6.3199,6.3247,6.3322,6.3361,6.3417,6.3502,6.3568,6.3586,6.3649,6.3696,6.3683,6.3713,6.3709,6.3714,6.3543,6.3518,6.3722,6.3722,6.3722,6.3722,6.3722,6.3722,6.3082,6.3188,6.3193,6.3316,6.334,6.3423,6.3454,6.3494,6.3526,6.3623,6.3679,6.3692,6.3722,6.3788,6.3847,6.385,6.3874,6.391,6.3907,6.3748,6.3725,6.3704,6.368,6.3916,6.3916,6.4072,6.4074,6.4075]}]]